[[{"header":{"parameterUnit":"m.s-1","parameterCategory":1,"la1":30.2991,"la2":30.254,"lo1":-89.0895,"lo2":-89.0444,"dy":0.0017,"dx":0.0017,"nx":28,"ny":28,"refTime":"2023-09-15T09:00:00:Z","depth":0,"parameterNumber":2,"parameterNumberName":"U-component_of_WINDS"},"data":[0,0,0,0,0,0,0,0,0,0,0,0,0,0,0,0,0,0,0,0,0,0,0,0,0,0,0,0,0,0,0,0,0,0,0,0,0,0,0,0,0,0,0,0,0,0,0,0,0,0,0,0,0,0,0,0,0,0,-1.0761,-1.076,0,-1.0734,-1.0734,-1.0733,-1.0692,-1.0691,-1.069,-1.069,-1.0663,-1.0663,-1.0663,0,0,0,0,0,0,0,0,0,0,0,0,0,-1.0776,-1.0776,-1.0761,-1.076,-1.076,-1.0734,-1.0734,-1.0733,-1.0692,-1.0691,-1.069,-1.0689,-1.0663,-1.0663,-1.0663,0,0,0,0,0,0,0,0,0,0,0,0,0,-1.0762,-1.0776,-1.0761,-1.0736,-1.0734,-1.0734,-1.0734,-1.0733,-1.0692,-1.0691,-1.069,-1.0689,-1.0663,-1.0663,-1.0663,-1.0686,0,0,-1.0663,-1.0663,0,0,0,0,0,0,0,0,-1.0763,-1.0761,-1.074,-1.0738,-1.0735,-1.0715,-1.0729,-1.0717,-1.0693,-1.0708,-1.069,-1.0688,-1.0682,-1.068,-1.0677,-1.0684,-1.0683,-1.0663,-1.0663,-1.0663,-1.0663,0,0,0,0,0,0,0,-1.0764,-1.0762,-1.075,-1.074,-1.0737,-1.0727,-1.0723,-1.0727,-1.0701,-1.0707,-1.0704,-1.0701,-1.068,-1.0678,-1.0676,-1.0683,-1.0663,-1.0663,-1.0663,-1.0663,-1.0706,-1.0707,0,0,0,0,0,0,-1.0768,-1.0763,-1.0751,-1.0749,-1.0746,-1.0727,-1.0724,-1.0723,-1.0701,-1.0697,-1.0702,-1.0699,-1.0678,-1.0677,-1.0675,-1.0699,-1.0663,-1.0663,-1.0663,-1.0705,-1.0706,-1.0707,0,0,0,0,0,0,-1.0769,-1.0767,-1.0752,-1.0755,-1.0753,-1.0728,-1.0728,-1.0723,-1.072,-1.0698,-1.0693,-1.0704,-1.0677,-1.0675,-1.0683,-1.0698,-1.0663,-1.0663,-1.0703,-1.0705,-1.0707,-1.0748,0,0,0,0,0,0,-1.0769,-1.0768,-1.0776,-1.0756,-1.0753,-1.076,-1.0728,-1.0723,-1.072,-1.0716,-1.0698,-1.0694,-1.0676,-1.0683,-1.0683,-1.0697,-1.0663,-1.0702,-1.0704,-1.0706,-1.0745,-1.0751,-1.0756,0,0,0,0,0,-1.077,-1.0789,-1.0777,-1.0775,-1.0762,-1.0761,-1.0759,-1.0738,-1.0722,-1.073,-1.0715,-1.0695,-1.0697,-1.0684,-1.0684,-1.0698,-1.0701,-1.0704,-1.0706,-1.0743,-1.075,-1.0756,0,0,0,0,0,0,-1.0812,-1.0786,-1.0772,-1.0785,-1.0775,-1.0754,-1.0763,-1.0746,-1.0741,-1.0737,-1.0711,-1.0707,-1.0718,-1.0709,-1.0696,-1.0718,-1.0696,-1.0698,-1.0724,-1.073,-1.0736,-1.0737,-1.0663,0,0,0,0,0,-1.0823,-1.0824,-1.0801,-1.0815,-1.0811,-1.0788,-1.0787,-1.0771,-1.076,-1.0756,-1.0742,-1.0732,-1.0731,-1.073,-1.0727,-1.0744,-1.0739,-1.0754,-1.0759,-1.0763,-1.0766,-1.0773,-1.0779,-1.0716,-1.0716,-1.0716,0,0,-1.0845,-1.0831,-1.0833,-1.0823,-1.0813,-1.0815,-1.0785,-1.0788,-1.0789,-1.0756,-1.0763,-1.0752,-1.074,-1.0752,-1.0757,-1.0745,-1.0782,-1.0767,-1.077,-1.077,-1.0777,-1.0783,-1.0788,-1.0718,-1.0717,-1.0717,0,0,-1.0886,-1.0876,-1.0885,-1.0877,-1.0863,-1.0848,-1.085,-1.0832,-1.0823,-1.0829,-1.0804,-1.0805,-1.0803,-1.0795,-1.0791,-1.0829,-1.081,-1.0829,-1.0856,-1.0864,-1.0869,-1.0873,-1.0886,-1.0891,-1.0831,-1.0831,-1.0831,0,-1.0915,-1.0917,-1.0893,-1.0898,-1.0894,-1.0864,-1.0874,-1.0867,-1.0853,-1.0851,-1.0838,-1.0834,-1.0823,-1.0833,-1.0842,-1.084,-1.0842,-1.083,-1.087,-1.0874,-1.0878,-1.089,-1.0895,-1.0834,-1.0833,-1.0833,-1.0833,0,-1.0953,-1.0954,-1.0964,-1.0951,-1.0948,-1.0956,-1.0933,-1.0933,-1.0918,-1.0904,-1.091,-1.0897,-1.089,-1.0892,-1.0877,-1.0899,-1.0892,-1.0875,-1.0851,-1.0887,-1.0897,-1.0902,-1.0837,-1.0836,-1.0835,-1.0835,0,0,-1.1019,-1.0993,-1.0997,-1.0991,-1.0973,-1.0974,-1.098,-1.0974,-1.0974,-1.0966,-1.097,-1.0968,-1.0952,-1.0948,-1.0931,-1.0938,-1.0969,-1.092,-1.0919,-1.0929,-1.0992,-1.1004,-1.101,-1.0956,-1.0957,-1.0958,-1.0993,0,-1.1057,-1.1065,-1.1044,-1.1057,-1.1058,-1.103,-1.1035,-1.1025,-1.1013,-1.1011,-1.0998,-1.0997,-1.0976,-1.0973,-1.0978,-1.0964,-1.0981,-1.0961,-1.0959,-1.096,-1.0963,-1.1016,-1.1029,-1.1063,-1.0997,-1.0997,-1.0998,0,-1.1101,-1.1094,-1.1108,-1.109,-1.1089,-1.1094,-1.1086,-1.1086,-1.1074,-1.1064,-1.1059,-1.104,-1.1044,-1.1022,-1.1028,-1.1015,-1.1013,-1.1006,-1.1006,-1.1005,-1.0981,-1.1015,-1.1073,-1.1078,-1.1005,-1.1004,-1.1004,0,-1.1147,-1.1142,-1.1149,-1.1145,-1.1124,-1.1128,-1.1119,-1.1106,-1.1103,-1.1097,-1.1095,-1.1089,-1.1086,-1.1081,-1.1061,-1.1047,-1.1069,-1.1046,-1.1061,-1.1062,-1.1066,-1.1066,-1.1124,-1.1067,-1.1066,-1.1066,-1.1066,0,-1.119,-1.12,-1.117,-1.1174,-1.1184,-1.1159,-1.117,-1.1158,-1.1147,-1.1149,-1.1124,-1.1126,-1.11,-1.1099,-1.1084,-1.109,-1.1089,-1.1081,-1.1077,-1.1083,-1.1084,-1.1081,-1.1078,-1.1068,-1.1067,-1.1067,-1.1067,0,-1.1243,-1.1224,-1.1229,-1.1209,-1.1204,-1.1212,-1.1195,-1.1198,-1.1184,-1.1186,-1.1185,-1.1163,-1.1161,-1.1141,-1.1134,-1.1124,-1.1136,-1.1128,-1.114,-1.1137,-1.1153,-1.1152,-1.1211,-1.1217,-1.1156,-1.1157,-1.1158,0,-1.1272,-1.1278,-1.1258,-1.1258,-1.125,-1.1249,-1.1246,-1.1223,-1.1221,-1.1208,-1.1213,-1.1209,-1.1204,-1.1202,-1.1185,-1.118,-1.1171,-1.1192,-1.117,-1.1175,-1.117,-1.117,-1.117,-1.1196,-1.1197,-1.1198,-1.1198,0,-1.1324,-1.1314,-1.1311,-1.1304,-1.1301,-1.1295,-1.1287,-1.1288,-1.1262,-1.1261,-1.1258,-1.1255,-1.1248,-1.1244,-1.1236,-1.1227,-1.1208,-1.1205,-1.1208,-1.1214,-1.1221,-1.1217,-1.1152,-1.1204,-1.1203,-1.1203,-1.1202,-1.1202,-1.1365,-1.1369,-1.1356,-1.1353,-1.1344,-1.1338,-1.1339,-1.1326,-1.1323,-1.1315,-1.1302,-1.1301,-1.1289,-1.1276,-1.1269,-1.1268,-1.1257,-1.1261,-1.1262,-1.1264,-1.1267,-1.1222,-1.1266,-1.1266,-1.1266,-1.1266,-1.1266,0,-1.1415,-1.1406,-1.1403,-1.1393,-1.139,-1.1373,-1.1363,-1.1363,-1.1362,-1.1352,-1.1348,-1.1345,-1.1341,-1.1324,-1.1318,-1.1321,-1.1312,-1.132,-1.1319,-1.1317,-1.1277,-1.1275,-1.1327,-1.1327,-1.1327,-1.1327,-1.1327,-1.1327,-1.1441,-1.1447,-1.1436,-1.1437,-1.1427,-1.1426,-1.1422,-1.1416,-1.1407,-1.1405,-1.1401,-1.139,-1.1378,-1.1371,-1.1366,-1.1361,-1.136,-1.137,-1.1363,-1.1326,-1.132,-1.1314,-1.1312,-1.1371,-1.1371,-1.1402,-1.1402,-1.1403]},{"header":{"parameterUnit":"m.s-1","parameterCategory":1,"la1":30.2991,"la2":30.254,"lo1":-89.0895,"lo2":-89.0444,"dy":0.0017,"dx":0.0017,"nx":28,"ny":28,"refTime":"2023-09-15T09:00:00:Z","depth":0,"parameterNumber":3,"parameterNumberName":"V-component_of_WINDS"},"data":[0,0,0,0,0,0,0,0,0,0,0,0,0,0,0,0,0,0,0,0,0,0,0,0,0,0,0,0,0,0,0,0,0,0,0,0,0,0,0,0,0,0,0,0,0,0,0,0,0,0,0,0,0,0,0,0,0,0,-0.9431,-0.9432,0,-0.9493,-0.9493,-0.9494,-0.9511,-0.9511,-0.9511,-0.951,-0.9573,-0.9575,-0.9577,0,0,0,0,0,0,0,0,0,0,0,0,0,-0.933,-0.9331,-0.9431,-0.9432,-0.9433,-0.9493,-0.9494,-0.9494,-0.9511,-0.9511,-0.951,-0.951,-0.9573,-0.9575,-0.9577,0,0,0,0,0,0,0,0,0,0,0,0,0,-0.9381,-0.9332,-0.9431,-0.9449,-0.9451,-0.9493,-0.9494,-0.9495,-0.9511,-0.9511,-0.951,-0.951,-0.9572,-0.9575,-0.9578,-0.9607,0,0,-0.9587,-0.9588,0,0,0,0,0,0,0,0,-0.9378,-0.9384,-0.9445,-0.9447,-0.945,-0.9494,-0.9481,-0.9532,-0.9512,-0.9488,-0.951,-0.951,-0.9547,-0.9552,-0.9565,-0.961,-0.9612,-0.9587,-0.9589,-0.959,-0.9591,0,0,0,0,0,0,0,-0.9374,-0.9382,-0.9456,-0.9446,-0.9449,-0.9454,-0.946,-0.9491,-0.952,-0.949,-0.9492,-0.9499,-0.9548,-0.9562,-0.9566,-0.9613,-0.9587,-0.959,-0.9591,-0.9593,-0.9686,-0.9686,0,0,0,0,0,0,-0.9368,-0.9379,-0.9454,-0.9457,-0.9412,-0.9456,-0.9463,-0.948,-0.952,-0.9525,-0.9499,-0.9499,-0.9557,-0.9563,-0.9569,-0.9606,-0.959,-0.9593,-0.9595,-0.9685,-0.9686,-0.9687,0,0,0,0,0,0,-0.9365,-0.9374,-0.9451,-0.9419,-0.9429,-0.9458,-0.9477,-0.9482,-0.9495,-0.9526,-0.9532,-0.9508,-0.9557,-0.9565,-0.9597,-0.9608,-0.9594,-0.9597,-0.9684,-0.9685,-0.9686,-0.968,0,0,0,0,0,0,-0.9362,-0.9373,-0.9384,-0.9419,-0.943,-0.9478,-0.9478,-0.9483,-0.95,-0.9501,-0.9536,-0.9541,-0.9557,-0.9593,-0.96,-0.9612,-0.9599,-0.9683,-0.9685,-0.9686,-0.9679,-0.9681,-0.9682,0,0,0,0,0,-0.9359,-0.938,-0.9385,-0.9394,-0.9445,-0.9479,-0.9486,-0.9504,-0.9501,-0.9513,-0.9533,-0.954,-0.9606,-0.9596,-0.9605,-0.9618,-0.9683,-0.9684,-0.9686,-0.9679,-0.968,-0.9682,0,0,0,0,0,0,-0.9346,-0.9385,-0.939,-0.9423,-0.9448,-0.9482,-0.9497,-0.9505,-0.9531,-0.953,-0.9552,-0.956,-0.9591,-0.9608,-0.9596,-0.9648,-0.9645,-0.9648,-0.9636,-0.9638,-0.9639,-0.9635,-0.9602,0,0,0,0,0,-0.9347,-0.9371,-0.9404,-0.943,-0.9442,-0.9467,-0.9483,-0.9495,-0.9521,-0.9531,-0.9554,-0.9579,-0.9606,-0.9623,-0.9649,-0.9682,-0.969,-0.9695,-0.9696,-0.9697,-0.97,-0.9719,-0.9722,-0.9692,-0.9692,-0.9692,0,0,-0.9349,-0.9373,-0.9387,-0.9428,-0.9448,-0.9473,-0.9476,-0.9502,-0.9521,-0.9535,-0.9568,-0.9585,-0.9615,-0.9648,-0.9664,-0.9663,-0.971,-0.9699,-0.97,-0.9702,-0.9721,-0.9724,-0.9727,-0.9693,-0.9692,-0.9692,0,0,-0.9366,-0.9387,-0.9411,-0.9431,-0.9462,-0.9479,-0.9485,-0.9518,-0.953,-0.9563,-0.9575,-0.9598,-0.9643,-0.9664,-0.9681,-0.9707,-0.9714,-0.9714,-0.9721,-0.974,-0.9742,-0.9744,-0.9754,-0.9757,-0.9717,-0.9717,-0.9717,0,-0.9365,-0.9403,-0.9422,-0.9448,-0.9466,-0.948,-0.9505,-0.9524,-0.9562,-0.9574,-0.9573,-0.963,-0.9651,-0.969,-0.9696,-0.9709,-0.9717,-0.9711,-0.974,-0.9743,-0.9745,-0.9755,-0.9758,-0.9717,-0.9717,-0.9717,-0.9717,0,-0.94,-0.9427,-0.9443,-0.9479,-0.9499,-0.9524,-0.9547,-0.9565,-0.9576,-0.9593,-0.9627,-0.9652,-0.9684,-0.9695,-0.9705,-0.9735,-0.9734,-0.9736,-0.9733,-0.9747,-0.9757,-0.9761,-0.9717,-0.9717,-0.9717,-0.9717,0,0,-0.941,-0.9458,-0.9463,-0.948,-0.9516,-0.9537,-0.9563,-0.9595,-0.961,-0.9635,-0.9658,-0.9697,-0.9699,-0.9718,-0.9731,-0.9748,-0.9767,-0.9748,-0.9749,-0.9751,-0.9803,-0.9801,-0.9805,-0.9773,-0.9773,-0.9774,-0.9801,0,-0.9432,-0.9479,-0.9498,-0.9537,-0.9562,-0.9576,-0.9599,-0.9624,-0.9641,-0.9665,-0.9684,-0.9711,-0.9712,-0.9724,-0.9741,-0.9761,-0.9778,-0.976,-0.9795,-0.9796,-0.9787,-0.981,-0.9808,-0.9832,-0.9804,-0.9805,-0.9806,0,-0.9463,-0.949,-0.9531,-0.9565,-0.9576,-0.9596,-0.9627,-0.965,-0.9678,-0.9689,-0.9711,-0.9723,-0.9752,-0.9747,-0.9787,-0.9774,-0.979,-0.9802,-0.9804,-0.9808,-0.9801,-0.9815,-0.984,-0.9844,-0.9811,-0.9811,-0.9811,0,-0.9467,-0.9513,-0.9544,-0.9558,-0.9598,-0.9612,-0.9629,-0.9657,-0.9675,-0.9702,-0.9714,-0.9744,-0.9761,-0.9784,-0.9804,-0.9798,-0.9843,-0.9839,-0.9853,-0.9853,-0.9862,-0.9861,-0.989,-0.9871,-0.9871,-0.9871,-0.9871,0,-0.9489,-0.9514,-0.9546,-0.9565,-0.9594,-0.9615,-0.9643,-0.9661,-0.9686,-0.9709,-0.9724,-0.9745,-0.9771,-0.9796,-0.9812,-0.9843,-0.985,-0.986,-0.9865,-0.9859,-0.9858,-0.987,-0.9869,-0.9872,-0.9872,-0.9872,-0.9872,0,-0.9498,-0.952,-0.9555,-0.959,-0.96,-0.9619,-0.9649,-0.9669,-0.9687,-0.9716,-0.9724,-0.9752,-0.9783,-0.9805,-0.9844,-0.9855,-0.9889,-0.9893,-0.9879,-0.9881,-0.9894,-0.9893,-0.9932,-0.9938,-0.9915,-0.9915,-0.9915,0,-0.9511,-0.953,-0.9568,-0.9584,-0.9601,-0.9628,-0.9647,-0.9669,-0.9688,-0.9722,-0.9737,-0.9769,-0.9795,-0.9843,-0.9867,-0.9897,-0.9902,-0.9914,-0.9907,-0.9901,-0.9903,-0.9902,-0.9904,-0.9915,-0.9915,-0.9915,-0.9915,0,-0.9531,-0.9542,-0.9568,-0.9598,-0.962,-0.9645,-0.9671,-0.9684,-0.971,-0.9731,-0.9762,-0.9782,-0.9823,-0.9854,-0.9887,-0.9905,-0.9915,-0.9917,-0.9922,-0.9917,-0.9909,-0.9914,-0.9882,-0.9916,-0.9916,-0.9916,-0.9916,-0.9916,-0.9543,-0.9561,-0.959,-0.9619,-0.9641,-0.9664,-0.9685,-0.9705,-0.9732,-0.9766,-0.9778,-0.981,-0.984,-0.9885,-0.9903,-0.9929,-0.9929,-0.9936,-0.9938,-0.994,-0.9939,-0.9904,-0.9935,-0.9935,-0.9935,-0.9935,-0.9935,0,-0.9564,-0.9584,-0.961,-0.9646,-0.9669,-0.9676,-0.9705,-0.9724,-0.9752,-0.9778,-0.9804,-0.9841,-0.9871,-0.9898,-0.993,-0.9946,-0.9951,-0.9953,-0.9953,-0.9957,-0.9937,-0.993,-0.9949,-0.9949,-0.9949,-0.9949,-0.9949,-0.9949,-0.9578,-0.961,-0.9624,-0.9666,-0.9686,-0.9718,-0.9734,-0.9756,-0.9777,-0.9817,-0.9843,-0.986,-0.9887,-0.9922,-0.995,-0.9957,-0.9969,-0.997,-0.9978,-0.996,-0.9958,-0.9956,-0.995,-0.9972,-0.9972,-0.9996,-0.9996,-0.9996]}]]